Terug naar catalogus

STARLINK-3928

ActiefCommunicatieVLEO
NORAD 52606·PAYLOAD·🇺🇸 United States

Gelanceerd May 14, 2022 vanaf Cape Canaveral Space Force Station

Loading…

Volgende Passages (komende 24 uur)

TLE

VersSource: CelesTrak SupGP

Epoch: Sep 15, 2026, 01:30 UTC

1 52606C 22052J   26258.06298611  .00019809  00000+0  97215-3 0  2587
2 52606  53.1611 145.0591 0001714  87.7895 345.7653 15.17570807    15

Volg STARLINK-3928 in realtime met AllMySat

Download on the App Store